TVS5453 LSZH-LKPR

Flight info

Callsign TVS5453
Flight time 0h 56m
Altitude 33000
Route DEGES Z2 XEBIX N871 NENUM Z39 DOLUP DCT APRAQ
Aircraft B38M/M-SDE1FGHILORVWXY/HB1

Departure

Time 2026-04-26 13:40
Airport Zürich Airport (LSZH)

Arrival

Time 2026-04-26 14:37
Airport Václav Havel Airport Prague (LKPR)
Time Latitude Longitude Altitude Speed Heading
2026-04-26 12:55 47.45349 8.55700 1399 ft 0 kts
2026-04-26 13:22 47.45346 8.55699 1399 ft 3 kts
2026-04-26 13:22 47.45319 8.55697 1402 ft 4 kts 358°
2026-04-26 13:22 47.45293 8.55702 1406 ft 4 kts 345°
2026-04-26 13:22 47.45270 8.55718 1406 ft 4 kts 307°
2026-04-26 13:23 47.45265 8.55734 1406 ft 1 kts 276°
2026-04-26 13:28 47.45266 8.55722 1399 ft 3 kts 275°
2026-04-26 13:28 47.45269 8.55672 1399 ft 6 kts 274°
2026-04-26 13:28 47.45275 8.55598 1403 ft 8 kts 284°
2026-04-26 13:28 47.45308 8.55553 1399 ft 7 kts 335°
2026-04-26 13:29 47.45375 8.55509 1404 ft 16 kts 335°
2026-04-26 13:29 47.45464 8.55448 1405 ft 5 kts 336°
2026-04-26 13:29 47.45503 8.55437 1401 ft 7 kts 11°
2026-04-26 13:29 47.45525 8.55499 1404 ft 10 kts 92°
2026-04-26 13:30 47.45516 8.55636 1406 ft 17 kts 96°
2026-04-26 13:30 47.45502 8.55840 1403 ft 22 kts 95°
2026-04-26 13:30 47.45485 8.56068 1399 ft 22 kts 96°
2026-04-26 13:30 47.45486 8.56227 1399 ft 12 kts 59°
2026-04-26 13:31 47.45541 8.56330 1402 ft 15 kts 52°
2026-04-26 13:31 47.45594 8.56484 1399 ft 18 kts 93°
2026-04-26 13:31 47.45580 8.56680 1405 ft 20 kts 96°
2026-04-26 13:31 47.45565 8.56888 1399 ft 16 kts 96°
2026-04-26 13:32 47.45561 8.56942 1399 ft 1 kts 94°
2026-04-26 13:32 47.45564 8.56964 1400 ft 4 kts 77°
2026-04-26 13:32 47.45570 8.56986 1401 ft 0 kts 57°
2026-04-26 13:37 47.45571 8.56986 1401 ft 1 kts 57°
2026-04-26 13:37 47.45590 8.57010 1404 ft 7 kts 32°
2026-04-26 13:38 47.45654 8.57023 1400 ft 8 kts 333°
2026-04-26 13:38 47.45665 8.56957 1401 ft 6 kts 269°
2026-04-26 13:38 47.45666 8.56944 1406 ft 0 kts 278°
2026-04-26 13:39 47.45666 8.56942 1406 ft 1 kts 278°
2026-04-26 13:40 47.45677 8.56794 1408 ft 50 kts 276°
2026-04-26 13:40 47.45745 8.55854 1404 ft 134 kts 276°
2026-04-26 13:40 47.45853 8.54145 1562 ft 186 kts 278°
2026-04-26 13:40 47.45990 8.52194 2513 ft 193 kts 279°
2026-04-26 13:41 47.46134 8.50222 3511 ft 192 kts 281°
2026-04-26 13:41 47.46220 8.48166 4194 ft 205 kts 264°
2026-04-26 13:41 47.45652 8.46270 4107 ft 202 kts 233°
2026-04-26 13:41 47.44919 8.44543 4442 ft 201 kts 242°
2026-04-26 13:42 47.44263 8.42644 4724 ft 211 kts 245°
2026-04-26 13:42 47.43649 8.40610 4925 ft 226 kts 248°
2026-04-26 13:42 47.43044 8.38418 5115 ft 229 kts 243°
2026-04-26 13:42 47.41894 8.36773 5455 ft 240 kts 202°
2026-04-26 13:43 47.40236 8.36485 5726 ft 251 kts 166°
2026-04-26 13:43 47.38730 8.37778 6105 ft 253 kts 128°
2026-04-26 13:43 47.38063 8.40096 6610 ft 256 kts 93°
2026-04-26 13:43 47.38446 8.42688 7112 ft 267 kts 61°
2026-04-26 13:44 47.39651 8.44802 7641 ft 274 kts 43°
2026-04-26 13:44 47.41051 8.46768 8157 ft 281 kts 46°
2026-04-26 13:44 47.42346 8.48966 8656 ft 284 kts 50°
2026-04-26 13:44 47.43616 8.51231 9176 ft 288 kts 53°
2026-04-26 13:45 47.44670 8.53758 9692 ft 290 kts 62°
2026-04-26 13:45 47.45520 8.56487 10208 ft 293 kts 75°
2026-04-26 13:45 47.45799 8.59532 10705 ft 307 kts 86°
2026-04-26 13:45 47.45959 8.62770 11196 ft 326 kts 86°
2026-04-26 13:46 47.46107 8.66218 11686 ft 345 kts 86°
2026-04-26 13:46 47.46258 8.69844 12171 ft 363 kts 86°
2026-04-26 13:46 47.46406 8.73659 12681 ft 375 kts 87°
2026-04-26 13:46 47.46548 8.77488 13204 ft 382 kts 87°
2026-04-26 13:47 47.46684 8.81438 13747 ft 387 kts 89°
2026-04-26 13:47 47.46326 8.85376 14253 ft 388 kts 105°
2026-04-26 13:47 47.45709 8.89290 14754 ft 393 kts 102°
2026-04-26 13:47 47.45136 8.93253 15251 ft 398 kts 102°
2026-04-26 13:48 47.44558 8.97288 15753 ft 401 kts 102°
2026-04-26 13:48 47.43978 9.01333 16264 ft 403 kts 102°
2026-04-26 13:48 47.43392 9.05406 16783 ft 408 kts 102°
2026-04-26 13:48 47.42797 9.09525 17315 ft 412 kts 102°
2026-04-26 13:49 47.42196 9.13678 17866 ft 415 kts 102°
2026-04-26 13:49 47.41598 9.17863 18418 ft 418 kts 99°
2026-04-26 13:49 47.41511 9.22153 18912 ft 420 kts 81°
2026-04-26 13:49 47.42155 9.26363 19408 ft 423 kts 75°
2026-04-26 13:50 47.42827 9.30621 19930 ft 427 kts 76°
2026-04-26 13:50 47.43486 9.34906 20406 ft 430 kts 76°
2026-04-26 13:50 47.44142 9.39234 20907 ft 434 kts 76°
2026-04-26 13:50 47.44804 9.43614 21431 ft 437 kts 77°
2026-04-26 13:51 47.45467 9.48025 21970 ft 442 kts 77°
2026-04-26 13:51 47.46134 9.52470 22517 ft 445 kts 77°
2026-04-26 13:51 47.46805 9.56955 23070 ft 448 kts 77°
2026-04-26 13:51 47.47224 9.61520 23619 ft 451 kts 90°
2026-04-26 13:52 47.46964 9.66137 24139 ft 452 kts 95°
2026-04-26 13:52 47.46698 9.70773 24619 ft 454 kts 95°
2026-04-26 13:52 47.46442 9.75427 25119 ft 455 kts 95°
2026-04-26 13:52 47.46183 9.80102 25629 ft 456 kts 95°
2026-04-26 13:53 47.45922 9.84784 26137 ft 457 kts 95°
2026-04-26 13:53 47.45664 9.89407 26660 ft 457 kts 95°
2026-04-26 13:53 47.45399 9.94092 27199 ft 457 kts 95°
2026-04-26 13:53 47.45133 9.98775 27744 ft 457 kts 95°
2026-04-26 13:54 47.44865 10.03454 28282 ft 457 kts 95°
2026-04-26 13:54 47.44594 10.08151 28687 ft 460 kts 95°
2026-04-26 13:54 47.44320 10.12875 29090 ft 462 kts 95°
2026-04-26 13:55 47.43467 10.22315 29908 ft 466 kts 102°
2026-04-26 13:55 47.43045 10.25425 30199 ft 467 kts 102°
2026-04-26 13:55 47.41561 10.36468 31036 ft 471 kts 102°
2026-04-26 13:56 47.40919 10.41223 31391 ft 472 kts 102°
2026-04-26 13:56 47.40372 10.45993 31722 ft 473 kts 94°
2026-04-26 13:56 47.40574 10.50825 32057 ft 473 kts 76°
2026-04-26 13:56 47.41634 10.55407 32356 ft 472 kts 64°
2026-04-26 13:57 47.42889 10.59946 32269 ft 484 kts 68°
2026-04-26 13:57 47.45233 10.69301 32402 ft 482 kts 69°
2026-04-26 13:57 47.46372 10.73952 32532 ft 482 kts 69°
2026-04-26 13:58 47.47508 10.78618 32659 ft 483 kts 69°
2026-04-26 13:58 47.48642 10.83294 32818 ft 484 kts 69°
2026-04-26 13:58 47.49781 10.87998 32974 ft 486 kts 69°
2026-04-26 13:58 47.50917 10.92703 33100 ft 488 kts 69°
2026-04-26 13:59 47.52044 10.97378 33193 ft 488 kts 69°
2026-04-26 13:59 47.54315 11.06834 33162 ft 486 kts 69°
2026-04-26 14:00 47.58834 11.25714 33166 ft 486 kts 69°
2026-04-26 14:01 47.61086 11.35179 33172 ft 486 kts 69°
2026-04-26 14:01 47.63190 11.44706 33168 ft 485 kts 72°
2026-04-26 14:02 47.65170 11.54351 33178 ft 485 kts 72°
2026-04-26 14:02 47.67128 11.63936 33179 ft 486 kts 72°
2026-04-26 14:03 47.68752 11.71919 33176 ft 486 kts 72°
2026-04-26 14:03 47.70663 11.81550 33186 ft 486 kts 73°
2026-04-26 14:04 47.72550 11.91183 33162 ft 484 kts 66°
2026-04-26 14:04 47.74153 11.95520 33163 ft 476 kts 50°
2026-04-26 14:04 47.76445 11.99005 33184 ft 471 kts 34°
2026-04-26 14:05 47.81633 12.05013 33196 ft 474 kts 36°
2026-04-26 14:05 47.86731 12.11255 33198 ft 475 kts 37°
2026-04-26 14:06 47.91819 12.17531 33198 ft 475 kts 37°
2026-04-26 14:06 47.96911 12.23818 33202 ft 475 kts 37°
2026-04-26 14:07 48.01996 12.30107 33211 ft 475 kts 37°
2026-04-26 14:07 48.07085 12.36418 33210 ft 475 kts 37°
2026-04-26 14:08 48.12167 12.42745 33213 ft 475 kts 37°
2026-04-26 14:08 48.17243 12.49092 33214 ft 475 kts 37°
2026-04-26 14:09 48.22314 12.55449 33210 ft 475 kts 37°
2026-04-26 14:09 48.27576 12.61420 33216 ft 474 kts 33°
2026-04-26 14:10 48.32872 12.67331 33214 ft 474 kts 33°
2026-04-26 14:10 48.38159 12.73246 33219 ft 474 kts 33°
2026-04-26 14:11 48.45581 12.83187 33213 ft 477 kts 40°
2026-04-26 14:11 48.50455 12.90003 33216 ft 477 kts 40°
2026-04-26 14:12 48.55540 12.96330 33197 ft 469 kts 25°
2026-04-26 14:12 48.61264 13.01118 33186 ft 471 kts 26°
2026-04-26 14:13 48.69829 13.08489 33212 ft 472 kts 26°
2026-04-26 14:14 48.75538 13.13418 33215 ft 472 kts 26°
2026-04-26 14:14 48.81223 13.18339 33218 ft 473 kts 26°
2026-04-26 14:15 48.86976 13.23331 33218 ft 473 kts 26°
2026-04-26 14:15 48.92894 13.27315 33229 ft 467 kts 19°
2026-04-26 14:16 48.98894 13.31131 33235 ft 467 kts 18°
2026-04-26 14:16 49.04899 13.34961 33220 ft 468 kts 19°
2026-04-26 14:17 49.10890 13.38830 33247 ft 469 kts 22°
2026-04-26 14:17 49.13635 13.41575 33101 ft 476 kts 38°
2026-04-26 14:17 49.16052 13.45039 32955 ft 476 kts 38°
2026-04-26 14:17 49.18520 13.48412 32779 ft 474 kts 38°
2026-04-26 14:18 49.20979 13.51759 32606 ft 473 kts 38°
2026-04-26 14:18 49.23436 13.55110 32398 ft 472 kts 38°
2026-04-26 14:18 49.25881 13.58447 32218 ft 471 kts 38°
2026-04-26 14:18 49.28321 13.61782 32023 ft 469 kts 38°
2026-04-26 14:19 49.30757 13.65116 31839 ft 468 kts 38°
2026-04-26 14:19 49.33174 13.68430 31653 ft 466 kts 38°
2026-04-26 14:19 49.35585 13.71739 31452 ft 465 kts 38°
2026-04-26 14:19 49.37990 13.75045 31216 ft 463 kts 38°
2026-04-26 14:20 49.40390 13.78347 30956 ft 462 kts 38°
2026-04-26 14:20 49.42777 13.81637 30697 ft 460 kts 38°
2026-04-26 14:20 49.45151 13.84914 30163 ft 456 kts 38°
2026-04-26 14:20 49.47495 13.88154 28996 ft 453 kts 38°
2026-04-26 14:21 49.49829 13.91385 27885 ft 450 kts 38°
2026-04-26 14:21 49.52152 13.94603 26830 ft 447 kts 38°
2026-04-26 14:21 49.54454 13.97798 25801 ft 443 kts 39°
2026-04-26 14:21 49.56733 14.00964 24815 ft 439 kts 39°
2026-04-26 14:22 49.58994 14.04110 23889 ft 434 kts 38°
2026-04-26 14:22 49.61223 14.07212 22816 ft 429 kts 38°
2026-04-26 14:22 49.63425 14.10253 21756 ft 422 kts 35°
2026-04-26 14:22 49.65825 14.12773 20761 ft 413 kts 31°
2026-04-26 14:23 49.67858 14.15834 19770 ft 418 kts 52°
2026-04-26 14:23 49.69040 14.19938 18795 ft 423 kts 74°
2026-04-26 14:23 49.69213 14.24459 17749 ft 424 kts 90°
2026-04-26 14:23 49.69251 14.28997 16663 ft 418 kts 83°
2026-04-26 14:24 49.69472 14.33447 15628 ft 414 kts 82°
2026-04-26 14:24 49.69765 14.37849 14613 ft 410 kts 81°
2026-04-26 14:24 49.70093 14.42204 13607 ft 406 kts 80°
2026-04-26 14:24 49.70434 14.46505 12559 ft 401 kts 80°
2026-04-26 14:25 49.70782 14.50767 11528 ft 397 kts 80°
2026-04-26 14:25 49.71127 14.54970 10751 ft 388 kts 80°
2026-04-26 14:25 49.71459 14.59031 10125 ft 376 kts 80°
2026-04-26 14:25 49.71784 14.62985 9458 ft 364 kts 80°
2026-04-26 14:26 49.72097 14.66807 8809 ft 354 kts 80°
2026-04-26 14:26 49.72403 14.70536 8173 ft 345 kts 80°
2026-04-26 14:26 49.72702 14.74178 7576 ft 336 kts 80°
2026-04-26 14:26 49.73013 14.77636 7458 ft 311 kts 74°
2026-04-26 14:27 49.73887 14.80503 7375 ft 281 kts 47°
2026-04-26 14:27 49.75363 14.82263 7339 ft 264 kts 20°
2026-04-26 14:27 49.77131 14.82737 7276 ft 258 kts 353°
2026-04-26 14:27 49.78789 14.81869 7273 ft 257 kts 329°
2026-04-26 14:28 49.80284 14.80262 7307 ft 260 kts 325°
2026-04-26 14:28 49.81713 14.78574 7282 ft 258 kts 319°
2026-04-26 14:28 49.82981 14.76616 7305 ft 258 kts 315°
2026-04-26 14:28 49.84223 14.74609 7291 ft 259 kts 315°
2026-04-26 14:29 49.85471 14.72585 7296 ft 259 kts 315°
2026-04-26 14:29 49.86716 14.70566 7237 ft 259 kts 315°
2026-04-26 14:29 49.87951 14.68563 6934 ft 262 kts 315°
2026-04-26 14:29 49.89215 14.66508 6543 ft 264 kts 314°
2026-04-26 14:30 49.90496 14.64472 6125 ft 260 kts 316°
2026-04-26 14:30 49.91847 14.62651 5741 ft 254 kts 319°
2026-04-26 14:30 49.93073 14.60733 5332 ft 249 kts 313°
2026-04-26 14:30 49.94172 14.58702 4958 ft 243 kts 310°
2026-04-26 14:31 49.95185 14.56675 4630 ft 231 kts 309°
2026-04-26 14:31 49.96130 14.54733 4274 ft 220 kts 309°
2026-04-26 14:31 49.97019 14.52912 4101 ft 201 kts 309°
2026-04-26 14:31 49.97817 14.51276 4045 ft 175 kts 309°
2026-04-26 14:32 49.98535 14.49802 4078 ft 171 kts 309°
2026-04-26 14:32 49.99248 14.48337 4060 ft 167 kts 309°
2026-04-26 14:32 49.99933 14.46929 4009 ft 160 kts 310°
2026-04-26 14:32 50.00600 14.45560 3979 ft 158 kts 310°
2026-04-26 14:33 50.01265 14.44193 3794 ft 158 kts 310°
2026-04-26 14:33 50.01917 14.42850 3659 ft 153 kts 310°
2026-04-26 14:33 50.02550 14.41546 3441 ft 149 kts 310°
2026-04-26 14:33 50.03173 14.40266 3250 ft 146 kts 310°
2026-04-26 14:34 50.03780 14.39012 3051 ft 141 kts 310°
2026-04-26 14:34 50.04366 14.37807 2819 ft 138 kts 309°
2026-04-26 14:34 50.04935 14.36627 2692 ft 137 kts 310°
2026-04-26 14:34 50.05508 14.35457 2484 ft 136 kts 309°
2026-04-26 14:35 50.06079 14.34279 2298 ft 137 kts 308°
2026-04-26 14:35 50.06656 14.33095 2133 ft 137 kts 311°
2026-04-26 14:35 50.07225 14.31913 1903 ft 137 kts 309°
2026-04-26 14:35 50.07814 14.30731 1645 ft 138 kts 311°
2026-04-26 14:36 50.08375 14.29552 1483 ft 136 kts 310°
2026-04-26 14:36 50.08946 14.28375 1299 ft 133 kts 309°
2026-04-26 14:36 50.09475 14.27270 1212 ft 118 kts 308°
2026-04-26 14:36 50.09875 14.26451 1205 ft 67 kts 307°
2026-04-26 14:37 50.10152 14.25882 1191 ft 56 kts 307°
2026-04-26 14:37 50.10232 14.25746 1190 ft 13 kts 321°
2026-04-26 14:37 50.10326 14.25673 1188 ft 16 kts 343°
2026-04-26 14:37 50.10403 14.25659 1186 ft 0 kts
2026-04-26 14:40 50.10405 14.25659 1186 ft 2 kts
2026-04-26 14:40 50.10418 14.25660 1186 ft 2 kts
2026-04-26 14:41 50.10447 14.25665 1185 ft 3 kts
2026-04-26 14:41 50.10477 14.25677 1184 ft 7 kts 16°
2026-04-26 14:41 50.10516 14.25703 1181 ft 12 kts 25°
2026-04-26 14:41 50.10597 14.25784 1175 ft 13 kts 35°
2026-04-26 14:42 50.10684 14.25876 1174 ft 17 kts 34°
2026-04-26 14:42 50.10777 14.25975 1176 ft 14 kts 34°
2026-04-26 14:42 50.10865 14.26068 1171 ft 16 kts 34°
2026-04-26 14:42 50.10966 14.26177 1172 ft 17 kts 34°
2026-04-26 14:43 50.11001 14.26214 1172 ft 6 kts 34°
2026-04-26 14:43 50.11039 14.26255 1168 ft 1 kts 34°
2026-04-26 14:43 50.11079 14.26298 1169 ft 14 kts 38°
2026-04-26 14:43 50.11137 14.26448 1166 ft 17 kts 65°
2026-04-26 14:44 50.11189 14.26621 1171 ft 18 kts 65°
2026-04-26 14:44 50.11230 14.26761 1169 ft 9 kts 66°
2026-04-26 14:44 50.11257 14.26854 1172 ft 10 kts 66°
2026-04-26 14:44 50.11238 14.26941 1175 ft 9 kts 148°
2026-04-26 14:45 50.11217 14.26960 1174 ft 0 kts 154°